This is the latest recevied weather packets stored in our database for station/object DC4AT. If no packets are shown the sender has not sent any weather packets the latest 10 day(s).
| Time | Temp. | Humidity | Pressure | Rain* | Wind** | Luminosity | Snow |
|---|---|---|---|---|---|---|---|
| 1787585867 | 20.56° C | 52% | 1020.5 hPa | 0 mm | - | 265 W/m² | - |
| 1787585267 | 20.56° C | 53% | 1020.7 hPa | 0 mm | - | 276 W/m² | - |
| 1787584667 | 20.56° C | 54% | 1020.9 hPa | 0 mm | - | 364 W/m² | - |
| 1787584067 | 20.56° C | 52% | 1021 hPa | 0 mm | - | 455 W/m² | - |
| 1787583467 | 20° C | 54% | 1021.2 hPa | 0 mm | - | 459 W/m² | - |
| 1787582867 | 20° C | 54% | 1021.2 hPa | 0 mm | - | 462 W/m² | - |
| 1787582267 | 19.44° C | 56% | 1021.4 hPa | 0 mm | - | 482 W/m² | - |
| 1787581667 | 19.44° C | 54% | 1021.5 hPa | 0 mm | - | 504 W/m² | - |
| 1787581067 | 19.44° C | 55% | 1021.6 hPa | 0 mm | - | 526 W/m² | - |
| 1787580467 | 19.44° C | 56% | 1021.7 hPa | 0 mm | - | 545 W/m² | - |
| 1787579867 | 19.44° C | 55% | 1021.9 hPa | 0 mm | - | 554 W/m² | - |
| 1787579267 | 19.44° C | 56% | 1022 hPa | 0 mm | - | 566 W/m² | - |
| 1787578667 | 18.89° C | 56% | 1022.1 hPa | 0 mm | - | 584 W/m² | - |
| 1787578067 | 18.89° C | 57% | 1022.2 hPa | 0 mm | - | 659 W/m² | - |
| 1787577467 | 19.44° C | 58% | 1022.2 hPa | 0 mm | - | 705 W/m² | - |
| 1787576867 | 18.89° C | 57% | 1022.2 hPa | 0 mm | - | 686 W/m² | - |
| 1787576267 | 18.89° C | 59% | 1022.5 hPa | 0 mm | - | 645 W/m² | - |
| 1787575667 | 18.33° C | 59% | 1022.6 hPa | 0 mm | - | 652 W/m² | - |
| 1787575067 | 17.78° C | 62% | 1022.7 hPa | 0 mm | - | 650 W/m² | - |
| 1787574467 | 17.78° C | 60% | 1022.9 hPa | 0 mm | - | 169 W/m² | - |
| 1787573867 | 17.78° C | 63% | 1022.9 hPa | 0 mm | - | 601 W/m² | - |
| 1787573267 | 17.22° C | 65% | 1023.1 hPa | 0 mm | - | 341 W/m² | - |
| 1787572667 | 17.22° C | 65% | 1023.2 hPa | 0 mm | - | 241 W/m² | - |
| 1787572067 | 17.22° C | 65% | 1023.3 hPa | 0 mm | - | 244 W/m² | - |
| 1787571467 | 17.22° C | 65% | 1023.5 hPa | 0 mm | - | 494 W/m² | - |
* Rain latest hour (hover to see other rain measurements)
** Current wind speed in m/s (hover to see current wind gust speed)